TimeEST,TemperatureF,Dew PointF,Humidity,Sea Level PressureIn,VisibilityMPH,Wind Direction,Wind SpeedMPH,Gust SpeedMPH,PrecipitationIn,Events,Conditions,WindDirDegrees,DateUTC
12:53 AM,21.9,19.0,89,30.18,6.0,Calm,Calm,-,N/A,,Clear,0,2012-12-28 05:53:00
1:25 AM,19.4,17.6,93,30.14,1.5,Calm,Calm,-,N/A,,Clear,0,2012-12-28 06:25:00
1:27 AM,19.4,17.6,93,30.14,0.8,Calm,Calm,-,N/A,,Mist,0,2012-12-28 06:27:00
1:53 AM,19.9,17.1,89,30.17,1.2,Calm,Calm,-,N/A,,Mostly Cloudy,0,2012-12-28 06:53:00
1:56 AM,19.4,17.6,93,30.14,4.0,Calm,Calm,-,N/A,,Scattered Clouds,0,2012-12-28 06:56:00
2:53 AM,17.1,14.0,88,30.19,8.0,Calm,Calm,-,N/A,,Partly Cloudy,0,2012-12-28 07:53:00
3:53 AM,18.0,15.1,88,30.19,8.0,Calm,Calm,-,N/A,,Partly Cloudy,0,2012-12-28 08:53:00
4:53 AM,18.0,12.9,81,30.17,9.0,Calm,Calm,-,N/A,,Clear,0,2012-12-28 09:53:00
5:21 AM,17.6,14.0,86,30.13,9.0,Calm,Calm,-,N/A,,Scattered Clouds,0,2012-12-28 10:21:00
5:53 AM,18.0,15.1,88,30.17,9.0,Calm,Calm,-,N/A,,Partly Cloudy,0,2012-12-28 10:53:00
6:53 AM,19.0,15.1,85,30.15,7.0,Calm,Calm,-,N/A,,Clear,0,2012-12-28 11:53:00
7:53 AM,21.0,18.0,88,30.14,6.0,ENE,3.5,-,N/A,,Mostly Cloudy,60,2012-12-28 12:53:00
8:53 AM,23.0,19.9,88,30.17,5.0,Calm,Calm,-,N/A,,Overcast,0,2012-12-28 13:53:00
9:53 AM,24.1,21.9,91,30.19,4.0,Calm,Calm,-,N/A,,Overcast,0,2012-12-28 14:53:00
10:31 AM,24.8,21.2,86,30.19,2.0,SSW,4.6,-,0.00,Snow,Light Snow,210,2012-12-28 15:31:00
10:39 AM,24.8,21.2,86,30.18,1.2,SSW,3.5,-,0.00,Snow,Light Snow,200,2012-12-28 15:39:00
10:53 AM,25.0,23.0,92,30.20,0.5,Calm,Calm,-,0.00,Fog-Snow,Snow,0,2012-12-28 15:53:00
11:32 AM,26.6,24.8,93,30.17,1.8,Calm,Calm,-,0.01,Snow,Light Snow,0,2012-12-28 16:32:00
11:37 AM,26.6,24.8,93,30.16,2.5,South,3.5,-,0.01,Snow,Light Snow,190,2012-12-28 16:37:00
11:44 AM,26.6,24.8,93,30.15,4.0,Variable,3.5,-,0.01,,Scattered Clouds,0,2012-12-28 16:44:00
11:53 AM,27.0,24.1,89,30.17,5.0,SE,3.5,-,0.01,,Partly Cloudy,130,2012-12-28 16:53:00
1:53 PM,30.9,24.1,76,30.06,7.0,ESE,5.8,-,N/A,,Mostly Cloudy,120,2012-12-28 18:53:00
2:23 PM,30.2,24.8,80,30.03,7.0,South,4.6,-,N/A,,Overcast,170,2012-12-28 19:23:00
2:53 PM,30.9,24.1,76,30.08,7.0,SSW,3.5,-,N/A,,Overcast,200,2012-12-28 19:53:00
3:53 PM,30.9,24.1,76,30.04,10.0,East,3.5,-,N/A,,Overcast,100,2012-12-28 20:53:00
4:49 PM,30.2,24.8,80,30.01,10.0,ESE,6.9,-,N/A,,Overcast,120,2012-12-28 21:49:00
4:53 PM,30.9,23.0,72,30.04,9.0,ESE,5.8,-,N/A,,Overcast,120,2012-12-28 21:53:00
5:53 PM,30.0,24.1,79,30.03,8.0,ESE,6.9,-,N/A,,Overcast,110,2012-12-28 22:53:00
6:53 PM,30.0,24.1,79,30.03,10.0,ESE,4.6,-,N/A,,Overcast,120,2012-12-28 23:53:00
7:02 PM,30.2,24.8,80,30.00,10.0,ESE,3.5,-,N/A,,Overcast,110,2012-12-29 00:02:00
7:29 PM,30.2,24.8,80,29.99,9.0,SE,3.5,-,N/A,,Overcast,130,2012-12-29 00:29:00
7:53 PM,30.0,24.1,79,30.01,9.0,East,4.6,-,N/A,,Overcast,100,2012-12-29 00:53:00
8:53 PM,30.0,24.1,79,29.99,7.0,East,4.6,-,N/A,,Overcast,80,2012-12-29 01:53:00
9:53 PM,28.9,25.0,85,29.97,7.0,East,5.8,-,N/A,,Overcast,80,2012-12-29 02:53:00
10:17 PM,28.4,24.8,86,29.92,7.0,ENE,4.6,-,N/A,,Overcast,60,2012-12-29 03:17:00
10:32 PM,28.4,24.8,86,29.92,6.0,ENE,6.9,-,N/A,,Overcast,70,2012-12-29 03:32:00
10:53 PM,28.9,25.0,85,29.95,8.0,ENE,8.1,-,N/A,,Overcast,70,2012-12-29 03:53:00
11:08 PM,28.4,24.8,86,29.92,2.5,ENE,4.6,-,0.00,Snow,Light Snow,70,2012-12-29 04:08:00
11:16 PM,28.4,24.8,86,29.91,2.0,ENE,6.9,-,0.00,Snow,Light Snow,70,2012-12-29 04:16:00
11:28 PM,28.4,24.8,86,29.90,1.8,ENE,4.6,-,0.00,Snow,Light Snow,70,2012-12-29 04:28:00
11:53 PM,28.0,26.1,92,29.91,1.2,ENE,3.5,-,0.01,Snow,Light Snow,60,2012-12-29 04:53:00